Location: Tucson
(32.2217°N, 110.9265°W)
Time: 14:13:37
(UTC-07:00)

Tiangong 2 - Visible Passes

Search period start: 20 February 2018 00:00
Search period end: 02 March 2018 00:00
Orbit: 384 x 388 km, 42.8° (Epoch: 20 February)

Date Brightness Start Highest point End Pass type
(mag) Time Alt. Az. Time Alt. Az. Time Alt. Az.
20 Feb 2.1 19:31:09 10° NW 19:33:56 31° NNE 19:33:56 31° NNE visible
21 Feb 3.2 20:08:46 10° WNW 20:10:20 26° WNW 20:10:20 26° WNW visible
22 Feb 1.2 19:09:49 10° NW 19:12:57 57° NNE 19:14:34 25° E visible
23 Feb 2.6 19:47:48 10° W 19:50:38 30° SW 19:51:14 28° SSW visible
24 Feb 1.4 18:48:34 10° WNW 18:51:43 66° SSW 18:54:51 10° SE visible
25 Feb 4.0 19:27:24 10° WSW 19:29:13 14° SW 19:31:02 10° S visible
